Weather History for EFPO - February, 2013

Change the Weather History Date:

Friday, February 1, 2013

  Actual Average (EFTP) Record (EFTP)
Temperature  
Mean Temperature 24 °F -  
Max Temperature 30 °F 22 °F 33 °F (2011)
Min Temperature 19 °F 11 °F -16 °F (2003)
Degree Days  
Heating Degree Days 40    
Moisture  
Dew Point 26 °F    
Average Humidity 98    
Maximum Humidity 100    
Minimum Humidity 93    
Precipitation  
Precipitation 0.00 in - - ()
Sea Level Pressure  
Sea Level Pressure 29.16 in    
Wind  
Wind Speed 5 mph ()    
Max Wind Speed 8 mph    
Max Gust Speed -    
Visibility 6.2 miles    
Events      
Averages and records for this station are not official NWS values.
T = Trace of Precipitation, MM = Missing Value Source: Averaged Metar Reports

Daily Weather History Graph

Daily Weather History Graph

Search for Another Location

Airport or City:

Trip Planner

Search our weather history database for the weather conditions in past years. The results will help you decide how hot, cold, wet, or windy it might be!

Date:

Astronomy

Feb. 01, 2013 Rise Set
Actual Time 8:54 AM EET 4:38 PM EET
Civil Twilight 8:04 AM EET 5:29 PM EET
Nautical Twilight 7:11 AM EET 6:22 PM EET
Astronomical Twilight 6:20 AM EET 7:13 PM EET
Moon No Moon Rise 9:28 AM EET (2/1)
Length of Visible Light 9h 24m
Length of Day
7h 44m
Waning Gibbous, 73% of the Moon is Illuminated
Feb 1
Waning Gibbous
Feb 3
Last Quarter
Feb 10
New
Feb 17
First Quarter
Feb 25
Full

Hourly Weather History & Observations

Time (EET) Temp. Windchill Dew Point Humidity Pressure Visibility Wind Dir Wind Speed Gust Speed Precip Events Conditions
12:50 AM 26.6 °F 20.0 °F 26.6 °F 100% 29.03 in - West 5.8 mph - N/A   Clear
1:20 AM 26.6 °F 20.0 °F 26.6 °F 100% 29.03 in - West 5.8 mph - N/A   Clear
1:50 AM 26.6 °F 20.0 °F 26.6 °F 100% 29.06 in - West 5.8 mph - N/A   Clear
2:20 AM 26.6 °F 19.1 °F 26.6 °F 100% 29.06 in - West 6.9 mph - N/A   Clear
2:50 AM 28.4 °F 22.2 °F 28.4 °F 100% 29.06 in - West 5.8 mph - N/A   Clear
3:20 AM 26.6 °F 20.0 °F 26.6 °F 100% 29.06 in - WNW 5.8 mph - N/A   Clear
3:50 AM 26.6 °F 20.0 °F 26.6 °F 100% 29.09 in 6.2 mi West 5.8 mph - N/A   Partly Cloudy
4:20 AM 24.8 °F 20.5 °F 24.8 °F 100% 29.09 in 6.2 mi West 3.5 mph - N/A   Partly Cloudy
4:50 AM 23.0 °F 18.4 °F 23.0 °F 100% 29.09 in 6.2 mi West 3.5 mph - N/A   Partly Cloudy
5:20 AM 21.2 °F - 21.2 °F 100% 29.09 in 6.2 mi Variable 1.2 mph - N/A   Mist
5:50 AM 21.2 °F 16.4 °F 21.2 °F 100% 29.09 in 6.2 mi WSW 3.5 mph - N/A   Mostly Cloudy
6:20 AM 26.6 °F 21.2 °F 26.6 °F 100% 29.12 in 6.2 mi WSW 4.6 mph - N/A   Mostly Cloudy
6:50 AM 26.6 °F 22.6 °F 26.6 °F 100% 29.12 in 6.2 mi West 3.5 mph - N/A   Mostly Cloudy
7:20 AM 28.4 °F 23.3 °F 28.4 °F 100% 29.12 in 6.2 mi WSW 4.6 mph - N/A   Overcast
7:50 AM 28.4 °F 23.3 °F 28.4 °F 100% 29.12 in 6.2 mi West 4.6 mph - N/A   Overcast
8:20 AM 30.2 °F 25.4 °F 28.4 °F 93% 29.12 in 6.2 mi West 4.6 mph - N/A   Overcast
8:50 AM 28.4 °F 24.6 °F 28.4 °F 100% 29.12 in 6.2 mi SW 3.5 mph - N/A   Overcast
9:20 AM 30.2 °F 25.4 °F 28.4 °F 93% 29.15 in 6.2 mi SW 4.6 mph - N/A   Overcast
9:50 AM 30.2 °F 25.4 °F 28.4 °F 93% 29.15 in 6.2 mi WSW 4.6 mph - N/A   Overcast
10:20 AM 28.4 °F 21.2 °F 28.4 °F 100% 29.15 in 6.2 mi West 6.9 mph - N/A   Mostly Cloudy
10:50 AM 28.4 °F 23.3 °F 28.4 °F 100% 29.15 in 6.2 mi WSW 4.6 mph - N/A   Mostly Cloudy
11:20 AM 30.2 °F 25.4 °F 28.4 °F 93% 29.15 in 6.2 mi WSW 4.6 mph - N/A   Mostly Cloudy
11:50 AM 30.2 °F 24.3 °F 28.4 °F 93% 29.18 in 6.2 mi WSW 5.8 mph - N/A   Overcast
12:20 PM 30.2 °F 23.4 °F 28.4 °F 93% 29.18 in 6.2 mi WSW 6.9 mph - N/A   Overcast
12:50 PM 30.2 °F 24.3 °F 28.4 °F 93% 29.18 in 6.2 mi WSW 5.8 mph - N/A   Mostly Cloudy
1:20 PM 30.2 °F 23.4 °F 28.4 °F 93% 29.18 in 6.2 mi WSW 6.9 mph - N/A   Overcast
1:50 PM 30.2 °F 22.6 °F 28.4 °F 93% 29.18 in 6.2 mi West 8.1 mph - N/A   Overcast
2:20 PM 30.2 °F 23.4 °F 28.4 °F 93% 29.21 in 6.2 mi West 6.9 mph - N/A   Mostly Cloudy
2:50 PM 30.2 °F 22.6 °F 28.4 °F 93% 29.21 in 6.2 mi West 8.1 mph - N/A   Overcast
3:20 PM 30.2 °F 24.3 °F 28.4 °F 93% 29.21 in 6.2 mi West 5.8 mph - N/A   Overcast
3:50 PM 30.2 °F 24.3 °F 28.4 °F 93% 29.21 in 6.2 mi WSW 5.8 mph - N/A   Mostly Cloudy
4:20 PM 30.2 °F 25.4 °F 28.4 °F 93% 29.21 in 6.2 mi WSW 4.6 mph - N/A   Mostly Cloudy
4:50 PM 28.4 °F 23.3 °F 28.4 °F 100% 29.21 in 6.2 mi SSW 4.6 mph - N/A   Scattered Clouds
5:20 PM 28.4 °F 23.3 °F 26.6 °F 93% 29.21 in 6.2 mi SSW 4.6 mph - N/A   Partly Cloudy
5:50 PM 28.4 °F 22.2 °F 26.6 °F 93% 29.21 in 6.2 mi SSW 5.8 mph - N/A   Partly Cloudy
6:20 PM 26.6 °F 22.6 °F 26.6 °F 100% 29.21 in 6.2 mi SSW 3.5 mph - N/A   Scattered Clouds
6:50 PM 24.8 °F 19.1 °F 24.8 °F 100% 29.21 in - South 4.6 mph - N/A   Clear
7:20 PM 21.2 °F 14.9 °F 21.2 °F 100% 29.21 in 6.2 mi South 4.6 mph - N/A   Mist
7:50 PM 24.8 °F 19.1 °F 24.8 °F 100% 29.21 in 6.2 mi South 4.6 mph - N/A   Partly Cloudy
8:20 PM 23.0 °F 15.8 °F 23.0 °F 100% 29.21 in 6.2 mi South 5.8 mph - N/A   Partly Cloudy
8:50 PM 23.0 °F 17.0 °F 23.0 °F 100% 29.21 in - South 4.6 mph - N/A   Clear
9:20 PM 19.4 °F 14.3 °F 19.4 °F 100% 29.21 in 6.2 mi SSE 3.5 mph - N/A   Partly Cloudy
9:50 PM 21.2 °F 13.6 °F 21.2 °F 100% 29.24 in - South 5.8 mph - N/A   Clear
10:20 PM 21.2 °F 13.6 °F 21.2 °F 100% 29.21 in - South 5.8 mph - N/A   Clear
10:50 PM 23.0 °F 14.7 °F 23.0 °F 100% 29.21 in - South 6.9 mph - N/A   Clear
11:20 PM 23.0 °F 15.8 °F 23.0 °F 100% 29.21 in - South 5.8 mph - N/A   Clear
11:50 PM 21.2 °F 13.6 °F 21.2 °F 100% 29.21 in - South 5.8 mph - N/A   Clear